Theta_e
319 318 318 318 318 317 317 316 316 315 315 315 315 315 315 315 314 314 315 315 315 314 314 314 314 314 313 311 309 309 308 308 309 311 313 314 315 315 315 315 314 313 313 313 313 313 313 312 311 310 308 306 305 305 305 306 307 309 309 310 310 311 312 312 309 308 311 315 316 316 318 321 321 324 324 325 325 326 324 327 328 327 327 327 327
317 317 317 316 315 315 315 315 315 314 313 313 314 314 314 313 314 314 313 314 313 312 312 313 313 311 310 308 307 307 307 306 307 308 310 312 313 314 313 312 312 311 312 312 312 313 313 311 310 308 306 305 304 303 302 303 305 306 307 307 307 309 312 312 310 309 307 310 311 314 314 316 315 322 321 319 321 324 325 325 327 328 328 328 327
317 316 315 314 313 313 313 313 313 312 312 312 312 313 313 313 314 313 313 313 313 311 312 311 310 309 308 307 306 305 305 305 306 307 309 311 312 312 311 311 311 310 310 310 310 312 312 310 308 306 305 303 302 302 301 300 301 303 304 305 305 307 310 312 311 307 306 306 309 309 310 311 313 314 316 313 316 317 316 314 314 317 322 326 327
317 316 315 314 313 313 312 312 312 311 311 311 312 312 313 314 315 314 313 312 310 311 311 310 309 307 306 305 305 304 305 305 305 307 310 310 310 311 310 310 310 310 309 309 308 310 310 308 306 304 303 301 301 300 299 299 299 300 301 303 305 306 309 312 310 307 306 304 306 306 308 308 310 312 312 310 310 311 311 311 311 311 314 315 316
316 316 315 313 313 312 312 312 311 311 311 312 312 313 313 313 313 312 311 311 311 312 311 309 307 306 305 304 303 303 303 302 302 302 304 305 307 309 310 310 308 307 306 305 306 305 307 306 306 304 302 300 299 298 298 297 298 299 299 301 303 305 307 310 308 307 304 302 303 305 306 307 308 310 309 307 306 307 308 307 307 308 308 310 312
315 314 314 312 312 311 311 311 311 311 312 312 311 312 312 312 311 311 310 309 310 310 309 308 307 305 304 304 303 302 300 299 298 299 300 302 303 306 309 308 307 305 303 303 302 303 304 304 304 303 301 299 298 298 297 297 298 298 298 300 302 303 306 308 307 305 304 302 302 302 304 304 304 305 306 305 304 304 304 304 305 306 306 306 307
315 313 313 312 311 311 311 311 311 311 311 311 312 312 312 311 310 310 311 311 309 308 308 307 306 305 304 303 302 301 299 297 296 296 298 299 301 304 307 307 306 304 302 301 301 301 302 303 302 302 300 299 298 297 297 296 297 297 299 299 301 301 305 307 305 304 302 301 301 301 302 304 304 302 304 305 305 305 302 301 301 303 305 305 304
313 313 312 311 311 311 311 311 311 311 311 311 310 310 310 309 309 309 310 309 308 307 306 306 305 305 304 302 301 300 298 296 295 295 296 298 300 304 305 305 304 303 302 300 300 300 300 301 301 301 300 300 299 297 297 296 297 298 299 300 301 303 306 305 303 303 302 301 300 300 301 302 302 303 304 303 301 301 303 302 300 301 302 304 304
312 311 311 310 310 310 310 311 311 311 311 310 310 310 309 309 308 308 308 308 308 306 306 305 304 304 303 302 299 298 297 296 295 295 295 297 299 304 304 303 303 302 301 299 299 299 299 300 300 300 302 303 302 300 299 300 299 298 300 301 304 305 306 303 302 301 301 301 301 301 301 301 301 301 300 300 299 299 301 302 301 302 302 302 303
310 310 309 309 310 310 310 310 310 310 310 310 309 310 310 309 308 307 307 307 307 306 305 304 303 302 301 300 299 298 296 296 296 295 296 296 300 304 303 302 301 301 300 298 298 298 298 298 301 304 303 303 301 297 296 297 299 300 300 302 304 305 305 302 300 300 299 299 299 300 300 299 300 300 300 300 301 301 300 300 299 300 300 300 301
309 309 309 310 310 310 310 309 309 309 309 309 309 309 309 308 307 306 306 306 306 306 304 302 302 301 299 298 297 297 295 295 294 292 293 297 302 302 301 301 300 300 299 297 296 297 297 298 298 301 301 301 299 296 296 296 296 297 298 301 303 304 303 301 300 299 298 298 299 299 299 299 299 300 300 300 300 299 299 299 298 298 298 297 296
308 308 309 309 310 309 309 309 308 308 309 308 308 308 307 306 305 305 305 305 306 306 304 303 301 300 298 297 296 296 294 295 292 293 293 293 300 303 301 301 301 299 298 296 296 296 296 297 297 299 299 300 299 295 296 296 296 296 297 297 297 297 298 301 299 298 298 297 297 298 298 298 298 299 299 299 298 298 299 298 298 297 297 297 298
308 308 308 309 309 308 308 307 308 308 307 307 307 306 306 305 305 305 305 305 305 303 301 301 299 299 298 296 295 294 293 294 292 293 293 293 295 302 301 300 300 298 297 296 295 295 295 297 296 297 297 301 300 294 293 295 298 298 299 300 300 300 295 295 296 300 300 298 297 296 297 297 296 297 298 299 299 297 297 297 297 297 298 298 299
307 307 308 308 308 307 307 307 306 306 306 306 306 306 305 304 304 304 304 304 303 301 299 299 298 298 297 296 294 293 293 293 292 293 293 294 296 300 300 300 299 298 297 296 295 294 294 295 295 294 295 295 295 292 293 293 296 298 298 298 298 300 299 297 297 297 299 300 299 297 298 298 296 297 299 299 297 296 296 296 297 297 298 298 301
306 306 306 306 306 306 306 306 305 305 306 305 305 304 304 304 304 303 302 302 301 299 298 297 297 297 296 295 294 293 293 292 292 292 293 296 298 299 300 300 299 297 296 296 295 294 294 295 294 293 293 293 296 293 292 292 295 297 297 298 299 299 299 299 299 300 301 301 300 299 299 299 298 298 298 298 298 298 298 297 298 298 300 301 301
306 306 305 305 305 306 306 305 305 304 304 303 303 302 302 302 301 302 301 301 301 300 300 298 296 295 295 293 292 292 292 292 292 293 294 294 298 301 299 299 298 297 296 296 295 295 294 294 293 293 293 293 294 291 292 294 294 295 296 297 298 299 299 301 296 297 299 299 299 299 298 298 296 297 297 297 298 298 299 300 300 299 298 297 297
305 305 305 305 305 305 305 304 303 303 303 302 302 301 301 301 301 301 299 299 298 298 298 298 297 295 294 293 291 291 292 292 292 293 294 295 297 298 298 298 297 296 295 295 295 295 296 297 295 293 293 293 293 290 291 294 293 294 295 296 297 297 298 300 298 296 295 295 295 295 294 294 294 295 295 295 295 298 298 297 295 296 295 294 295
305 305 304 305 305 305 304 303 303 303 302 301 301 301 301 301 300 300 298 297 297 297 297 297 297 297 295 294 293 291 291 293 292 293 293 294 297 297 296 296 295 294 294 294 294 293 295 302 304 294 292 293 292 290 291 294 292 293 294 294 294 295 296 299 300 300 297 296 295 295 294 294 295 295 296 295 295 298 297 294 295 296 294 294 293
305 305 304 305 305 305 304 303 302 302 302 301 301 301 301 300 300 299 298 297 297 296 297 295 295 295 295 295 300 294 292 294 292 292 293 294 296 295 295 294 294 292 292 291 292 293 293 296 299 297 294 293 290 291 291 293 293 293 293 292 292 293 295 298 298 297 297 297 297 298 297 297 298 298 298 296 296 298 298 297 296 294 292 293 293
304 304 304 304 303 303 303 303 302 301 300 300 300 301 301 301 300 299 297 297 296 296 295 295 294 294 294 295 296 294 292 292 293 292 292 293 294 296 294 292 293 292 291 293 293 292 292 293 295 293 291 291 290 290 291 291 293 292 292 291 292 293 295 296 299 298 297 297 297 297 297 297 297 297 297 297 298 299 297 297 296 294 292 292 292
304 303 302 302 302 302 302 302 301 301 301 300 301 301 301 300 299 299 299 298 297 296 296 295 295 294 294 294 294 293 294 292 293 291 292 292 292 293 292 291 291 292 291 292 292 292 293 293 293 294 291 291 291 291 291 291 293 294 292 292 292 293 295 295 298 298 296 296 296 296 297 296 296 296 296 296 296 297 297 296 296 295 293 291 291
301 301 301 301 301 301 301 301 301 302 301 301 300 300 300 300 300 299 298 298 297 297 296 296 294 294 293 294 293 294 297 297 292 292 291 292 291 292 292 291 291 292 293 292 292 292 292 292 293 294 291 291 291 291 292 291 292 294 292 291 292 292 295 296 295 295 295 294 294 294 295 295 295 294 295 295 295 296 295 295 295 295 294 294 292
301 301 301 301 301 300 301 301 302 303 301 301 300 299 299 300 299 299 298 297 297 296 296 296 295 293 293 292 292 293 293 295 294 294 293 292 291 291 291 291 291 293 292 292 291 291 291 291 294 294 291 291 292 291 292 292 293 291 291 291 292 292 294 293 293 292 292 293 293 293 294 295 294 294 294 294 294 295 295 294 294 295 295 294 294
301 301 300 300 301 301 302 302 301 300 300 299 299 299 298 298 298 298 297 296 295 295 294 295 294 293 292 291 293 292 292 291 293 292 292 291 291 291 291 291 291 291 293 292 291 290 291 291 292 291 292 291 292 292 292 292 292 291 291 291 292 293 293 292 291 291 290 291 292 292 292 294 294 294 294 294 295 294 294 294 294 294 294 294 294
300 300 300 300 300 301 301 300 300 299 299 299 298 298 297 297 297 297 297 296 295 295 294 293 292 291 290 290 289 289 290 290 290 292 292 292 291 291 291 291 291 291 293 292 291 291 290 291 291 292 292 292 291 292 292 292 291 291 292 292 296 291 292 291 291 290 290 290 291 291 292 293 294 295 295 295 295 295 294 294 294 294 294 294 294
300 300 300 300 300 301 300 300 300 299 299 298 297 296 296 295 295 294 294 295 295 295 293 292 291 290 289 288 288 288 289 288 289 289 292 292 291 291 291 291 292 292 293 291 290 290 291 291 291 292 293 292 293 291 291 292 291 292 292 294 292 290 290 290 290 290 289 289 290 291 291 292 293 294 294 295 294 293 293 292 292 292 292 292 291
300 300 299 299 299 299 298 296 294 294 296 296 296 295 294 293 293 293 292 293 292 292 292 292 291 289 289 287 287 288 287 286 286 286 287 287 287 290 290 291 292 291 291 290 290 290 292 293 291 292 292 292 291 292 292 292 291 291 291 291 291 291 291 290 289 289 289 289 289 290 291 291 292 292 292 293 292 292 293 292 292 292 292 292 290
300 299 298 298 297 295 293 290 292 292 292 293 292 291 291 291 290 289 290 292 292 291 291 290 290 290 288 288 287 286 285 285 285 285 286 286 287 286 288 288 287 286 288 288 288 290 292 292 292 292 291 291 291 290 290 290 290 288 290 290 290 291 293 294 293 289 289 288 289 289 290 290 290 290 291 291 292 292 293 293 292 292 292 292 290
298 298 298 297 295 294 293 292 291 290 289 288 288 288 288 290 289 287 287 288 290 291 290 289 289 288 288 287 286 287 284 284 286 289 285 288 286 287 287 286 286 286 290 289 290 290 290 289 289 288 289 288 288 288 289 289 288 289 290 290 289 289 289 289 288 288 287 288 288 288 288 289 289 289 290 291 291 291 292 292 292 291 291 292 290
297 297 296 296 295 293 292 291 291 290 289 288 288 288 287 289 289 289 288 290 290 290 290 288 288 287 288 287 287 285 284 286 289 289 288 288 289 289 289 289 288 288 289 289 290 286 286 285 286 286 288 287 286 286 285 286 287 286 287 288 287 288 287 288 288 287 287 287 287 286 287 287 288 288 288 288 290 291 291 290 291 292 290 290 289
296 295 296 295 294 293 292 290 289 288 288 287 287 287 286 287 288 289 289 289 289 289 289 290 290 289 289 286 287 290 289 289 288 288 289 289 289 289 289 289 289 289 289 288 285 283 283 284 285 285 284 286 284 286 285 285 284 284 285 285 286 286 286 288 288 286 285 286 285 285 285 286 286 287 287 286 287 289 290 289 290 291 291 291 290
296 295 295 294 294 293 291 289 288 288 287 287 286 286 286 286 286 288 289 289 289 289 289 289 289 290 290 289 288 286 287 288 289 289 289 289 289 288 288 289 289 289 289 290 285 284 284 283 284 284 285 285 284 284 285 285 284 284 283 284 285 284 285 286 286 287 285 285 285 284 284 285 285 286 286 286 285 286 288 288 288 288 288 290 289
296 294 294 294 294 292 290 289 288 288 288 287 286 285 285 284 284 284 287 289 289 289 289 289 289 289 289 290 291 290 289 289 289 289 289 289 288 288 289 289 290 289 289 285 284 284 285 286 285 285 286 285 284 284 285 285 284 284 284 283 283 284 286 286 286 287 285 285 284 284 284 284 284 285 285 285 285 285 285 286 286 287 287 287 287
295 294 293 293 292 291 289 289 288 288 288 287 286 286 285 285 285 284 284 284 287 289 290 290 289 289 289 289 289 289 288 288 289 289 289 288 288 288 288 288 289 290 291 287 285 286 285 285 286 286 286 286 285 283 285 285 284 283 284 284 284 285 286 286 286 285 284 285 285 284 284 284 284 284 284 284 284 284 285 285 286 286 286 285 285
296 291 289 290 291 291 290 289 289 289 288 288 287 286 286 286 286 285 284 284 285 284 285 287 288 289 287 288 289 289 289 289 289 289 289 288 288 289 289 288 286 285 288 289 288 287 286 287 287 287 286 286 285 284 284 285 284 283 284 284 283 284 284 285 284 285 283 284 285 284 284 284 284 284 283 283 283 284 284 284 286 286 285 285 285
295 293 293 292 291 290 290 290 290 290 289 289 288 288 287 287 286 286 285 286 286 286 286 286 285 289 290 289 289 289 289 289 289 289 288 288 289 289 286 285 284 284 285 286 287 287 287 287 287 287 287 286 287 284 285 284 284 283 283 283 283 282 282 283 284 284 284 284 283 284 285 284 283 284 284 284 284 283 281 282 284 284 284 284 284
294 293 293 292 292 292 291 292 291 291 289 288 289 289 288 288 288 288 287 288 288 287 287 287 289 290 290 289 291 290 290 289 289 289 289 289 289 287 285 286 285 284 285 287 287 287 288 287 287 287 287 287 286 285 285 286 284 284 286 283 283 283 283 282 283 283 283 283 284 283 283 284 283 283 282 283 284 284 283 282 282 284 284 285 285
295 294 293 294 294 293 293 293 292 289 289 290 290 290 289 289 289 289 288 289 288 286 287 288 289 287 287 287 295 291 287 290 290 290 289 289 287 285 285 285 285 286 287 288 287 288 288 287 287 288 287 288 287 286 285 285 285 284 283 283 282 283 287 283 283 283 283 282 283 283 283 283 283 283 283 282 282 282 283 283 281 281 282 283 282
295 292 291 291 291 294 293 292 291 292 291 291 291 289 288 288 289 290 290 288 288 289 288 288 287 287 288 287 287 292 290 287 286 286 286 286 286 286 286 286 285 288 288 289 288 286 288 288 288 287 287 287 286 286 286 285 285 285 283 282 282 282 282 280 282 283 282 282 282 283 283 282 282 282 282 282 282 282 282 283 282 281 280 281 281
293 291 290 290 291 291 291 291 292 292 290 292 292 290 288 288 288 288 288 287 287 287 287 289 289 289 290 289 288 289 287 286 286 286 285 287 287 286 286 287 286 286 287 289 288 287 286 286 286 287 287 287 287 287 287 286 285 285 284 282 282 282 282 281 280 281 281 281 281 282 283 282 282 281 282 282 281 281 283 282 282 282 281 280 280
293 293 290 290 290 292 291 291 291 291 291 289 289 289 289 288 288 288 287 287 286 286 287 287 290 292 291 291 289 289 289 285 284 284 284 286 286 286 286 287 287 286 286 287 287 286 285 285 286 286 286 286 286 287 287 287 285 284 284 284 282 282 281 281 281 281 281 281 281 282 283 283 282 280 281 282 285 282 282 282 282 282 282 281 282
294 293 293 292 292 291 291 290 290 289 290 290 291 290 288 287 289 288 288 287 286 286 288 288 290 290 288 290 288 288 287 285 284 284 286 286 286 286 286 286 286 287 286 286 287 287 286 286 286 285 287 286 286 285 285 284 284 284 284 284 284 283 283 282 282 282 281 281 281 282 282 283 284 282 281 286 282 280 280 281 280 281 281 281 281
294 293 293 292 292 292 291 291 290 291 289 290 289 290 289 290 290 287 288 287 287 286 288 287 288 287 286 287 288 288 287 287 287 286 286 286 287 287 286 286 287 287 288 288 287 287 286 286 285 285 285 286 287 287 286 286 285 284 283 283 283 283 283 282 281 282 281 282 282 282 282 282 283 283 282 281 282 281 279 280 281 280 280 279 279
293 293 292 292 292 292 291 291 291 290 290 289 289 289 289 290 290 290 289 288 287 286 286 285 285 286 286 286 286 286 285 286 288 288 287 287 288 289 285 286 286 288 289 289 288 288 287 286 285 286 286 287 287 288 286 285 286 286 285 284 284 284 284 282 282 282 282 282 281 282 282 283 283 283 283 282 281 282 281 281 282 281 280 279 279
294 293 292 292 293 292 291 291 291 290 288 288 290 291 289 290 290 289 290 289 287 288 288 287 286 287 286 287 287 286 286 288 287 287 287 288 287 286 284 286 286 288 287 286 287 288 287 285 286 284 285 286 285 287 288 287 287 286 286 285 285 286 286 285 284 283 283 282 282 282 282 283 283 283 282 280 282 281 282 281 281 282 281 281 280
293 293 292 291 291 290 291 292 289 290 289 288 289 289 289 290 291 290 288 288 288 288 288 288 287 287 287 288 287 287 287 288 288 288 288 288 286 285 285 286 286 288 288 287 287 289 287 287 287 286 286 286 286 286 285 287 287 288 288 287 287 287 287 287 285 284 284 283 282 282 282 282 283 283 284 281 281 281 281 281 281 281 280 280 280
294 293 291 290 291 291 291 292 290 290 292 289 289 289 290 289 289 289 288 289 288 288 287 287 287 287 286 287 288 289 289 289 289 288 288 288 287 287 288 287 286 288 287 288 288 288 287 287 286 287 288 287 287 288 289 287 289 286 287 288 287 289 287 285 285 285 285 284 284 283 282 283 283 282 283 283 283 282 281 281 281 281 281 281 281
293 292 291 292 292 292 291 291 291 289 291 290 290 290 289 289 289 290 288 288 288 288 288 287 287 287 288 290 287 287 288 288 289 290 288 288 289 290 289 289 288 288 287 287 287 287 287 287 287 287 288 288 287 287 289 289 290 289 288 289 288 289 288 286 285 286 286 285 285 284 284 284 283 283 283 282 282 281 281 283 282 281 281 282 282
293 292 291 292 293 292 290 292 291 290 292 291 290 290 289 289 289 289 289 289 290 290 289 288 289 288 289 290 289 289 289 288 288 288 287 289 289 289 289 291 288 288 288 287 287 287 288 288 288 288 288 288 287 288 288 289 289 289 290 289 289 286 286 285 286 287 286 287 286 285 285 285 284 284 284 283 283 283 283 283 282 283 283 282 281
292 292 291 291 292 293 291 292 292 293 291 291 291 290 289 289 288 288 288 289 288 288 289 289 291 290 290 289 289 288 288 289 288 288 288 290 289 289 288 289 288 287 287 287 287 288 288 288 289 288 288 288 287 288 288 288 288 289 289 290 287 287 286 286 285 285 287 287 287 287 286 286 286 285 285 285 285 284 284 284 284 284 283 282 282
292 292 292 292 293 294 294 293 292 292 292 290 290 290 289 289 289 289 288 290 290 289 289 289 291 289 289 290 289 290 290 289 289 289 290 289 290 289 289 288 288 288 288 288 288 288 288 289 288 287 288 288 288 288 288 288 288 289 288 288 287 287 286 286 288 284 284 285 287 287 286 287 286 286 286 286 285 285 285 285 285 284 284 284 284
Wind_Speed
5 4 3 4 4 5 6 7 8 8 9 10 10 10 9 9 9 8 7 7 6 7 6 3 3 7 11 10 10 9 9 9 8 7 7 6 5 7 8 8 8 6 5 6 5 5 6 7 8 10 10 9 8 8 9 8 7 6 7 7 8 8 8 8 9 10 8 7 7 10 12 11 10 9 10 9 10 9 7 6 6 6 8 8 9
5 5 5 6 7 7 7 7 7 8 9 9 10 10 9 8 9 7 7 6 6 4 3 1 7 10 10 10 10 9 9 8 7 6 6 7 6 6 7 8 6 6 5 7 7 5 5 7 9 10 8 9 8 9 9 10 9 9 8 7 8 8 8 7 7 8 11 11 9 9 10 12 11 11 11 13 13 12 12 11 9 7 8 8 8
6 7 7 8 8 7 7 7 8 9 9 8 9 9 8 8 8 8 6 3 1 0 2 9 10 10 10 9 9 8 8 6 5 5 5 6 6 6 5 4 5 6 7 8 8 7 7 7 9 9 7 8 8 8 9 9 9 9 9 7 8 8 8 7 7 9 11 11 10 10 11 11 9 12 11 11 11 11 11 12 12 12 11 11 10
7 8 8 9 8 8 8 7 9 8 8 7 8 7 7 6 6 6 4 2 3 4 10 10 10 10 10 9 8 7 6 6 6 6 6 6 6 4 4 6 7 8 9 11 12 9 8 9 10 10 9 9 9 9 8 8 8 8 8 8 7 8 8 6 6 6 7 10 11 11 10 12 10 10 8 10 11 11 9 9 11 11 10 10 11
9 8 9 9 8 8 7 7 7 9 8 7 7 7 7 8 6 5 4 2 2 9 9 10 10 10 9 8 7 7 6 6 6 7 6 6 7 6 5 7 10 11 12 12 12 11 11 11 10 10 10 10 10 10 9 10 8 8 8 8 8 8 7 6 6 6 7 8 9 8 9 9 9 9 10 12 12 11 9 9 10 10 11 10 9
9 9 9 9 8 8 7 7 7 7 6 6 7 7 7 6 6 4 4 3 7 9 10 9 9 9 8 7 6 6 5 5 5 5 5 6 6 5 7 9 10 12 12 10 9 9 9 10 9 9 10 10 9 10 10 10 8 8 8 8 8 8 8 6 6 6 5 5 6 8 8 9 10 8 9 9 9 10 12 12 9 7 10 13 12
10 10 9 8 7 7 5 5 4 4 5 5 4 4 4 4 3 2 3 7 9 10 10 10 9 9 7 6 6 5 5 5 5 6 6 5 5 5 8 9 10 9 9 9 9 9 9 8 9 9 9 9 9 10 10 10 8 9 8 8 7 7 7 7 7 7 6 7 5 4 6 6 7 10 10 8 7 7 10 12 15 10 7 9 14
10 9 9 8 7 6 5 4 4 5 4 4 4 4 4 4 4 4 8 9 10 10 10 9 8 7 7 6 6 5 6 6 6 6 5 5 5 6 9 9 8 7 7 7 8 8 8 8 8 9 9 9 9 9 8 8 8 9 9 7 7 6 6 8 9 9 8 7 7 8 7 7 7 6 7 8 8 6 5 9 12 14 14 10 8
10 10 9 8 7 6 5 4 5 6 5 3 4 5 4 4 6 8 8 8 9 10 10 9 8 7 6 6 6 5 6 6 5 5 5 6 5 6 8 8 7 5 6 7 8 8 7 7 7 9 12 15 17 13 12 10 7 7 9 9 9 7 6 8 9 9 9 9 8 7 7 8 8 9 10 9 9 10 11 9 10 10 11 13 11
10 9 9 8 7 6 5 5 5 5 4 4 3 4 5 6 7 7 7 8 9 10 10 9 8 7 6 6 5 5 5 4 6 7 5 2 4 6 6 6 5 5 6 7 8 7 7 6 8 16 14 15 16 17 17 18 17 11 8 9 8 8 9 10 10 9 9 9 10 10 9 9 9 9 9 10 9 9 10 10 11 11 11 11 11
10 10 9 8 7 7 6 6 5 3 3 4 5 7 8 7 7 7 7 7 8 9 9 9 8 7 7 6 6 6 6 5 9 9 9 7 5 5 5 5 5 5 6 7 7 6 6 6 5 9 10 11 12 15 15 16 16 15 16 14 9 7 7 10 8 8 9 8 8 9 9 10 10 9 9 10 10 10 10 10 10 10 10 11 15
10 9 9 8 7 7 6 6 5 5 4 5 7 7 7 7 7 6 7 7 7 8 9 8 8 6 6 6 7 6 6 9 10 10 8 7 5 5 4 5 5 5 6 6 5 5 5 6 5 4 6 9 9 10 12 14 15 13 14 14 15 13 6 4 6 8 9 8 9 10 10 10 11 10 10 10 10 10 9 9 9 10 11 11 10
10 10 9 9 8 7 6 6 6 5 5 5 6 7 8 7 6 6 6 6 8 10 9 8 7 6 7 7 7 6 5 9 9 9 8 7 6 6 4 4 6 5 6 6 5 4 4 5 5 6 5 11 9 8 8 9 12 12 12 12 13 14 14 14 10 7 8 9 9 10 10 10 10 9 11 10 10 11 12 10 9 9 10 11 11
10 10 10 9 8 6 5 6 6 6 6 7 8 8 8 8 6 6 6 7 9 9 9 8 7 6 6 7 6 6 6 8 9 9 7 7 6 6 4 6 6 6 5 4 4 4 4 4 6 7 6 6 7 9 8 7 7 6 7 7 7 10 11 13 12 11 9 7 8 9 10 9 9 10 11 10 11 11 10 11 11 10 10 11 13
9 9 9 8 7 6 8 7 7 7 7 7 7 7 6 5 5 4 5 7 8 8 8 8 7 7 6 6 6 7 5 9 11 11 9 6 7 5 4 5 6 5 4 3 3 4 4 5 5 6 6 6 6 9 7 7 6 5 5 5 6 7 8 9 9 8 8 7 6 8 9 9 8 9 9 9 9 9 9 11 12 11 11 12 11
10 9 8 7 7 8 9 7 6 5 5 5 6 7 8 9 9 8 8 8 7 7 7 7 7 7 6 6 6 7 7 12 12 13 13 11 8 4 4 5 5 4 3 2 3 3 4 4 5 7 7 7 9 12 9 6 4 5 5 5 5 5 5 6 8 8 9 8 7 8 8 9 9 10 10 10 9 9 10 9 9 9 10 10 10
9 9 9 6 7 8 7 7 7 6 7 8 9 9 8 8 8 8 9 8 8 8 7 6 6 6 6 5 6 6 7 9 13 15 15 14 10 7 7 6 5 4 3 2 3 4 4 5 4 6 7 9 11 10 12 7 5 5 5 5 5 4 5 6 8 9 11 11 12 12 13 13 13 14 14 17 13 12 9 8 11 10 10 11 10
9 8 8 9 9 8 7 7 7 7 6 8 8 7 7 7 7 7 9 8 8 8 7 7 6 5 5 6 6 7 6 10 15 16 15 14 11 7 6 6 6 6 4 3 3 4 5 11 9 5 7 8 14 11 11 7 5 5 5 6 7 6 5 5 6 7 10 9 10 11 12 13 14 14 14 16 17 14 11 13 13 11 9 9 11
9 8 8 9 9 8 7 7 6 6 7 7 7 8 8 9 7 7 8 7 7 6 6 7 5 5 5 6 8 8 6 8 13 14 14 13 10 7 7 7 6 5 4 4 4 4 6 7 11 10 9 10 15 13 10 8 6 6 5 5 8 8 7 6 6 8 10 10 11 12 13 14 12 11 11 16 16 15 11 11 10 11 11 10 10
8 8 9 9 8 7 6 7 7 8 8 7 7 8 8 8 8 9 8 8 7 6 6 6 7 5 4 5 6 6 6 6 7 12 12 13 12 8 7 7 6 4 4 3 5 6 7 7 8 11 15 14 13 14 12 10 6 7 6 6 7 10 9 7 5 6 9 9 9 9 10 9 10 10 10 11 11 12 12 11 11 11 11 9 8
10 9 8 8 8 8 7 7 8 7 6 6 5 5 6 7 7 7 7 7 7 7 7 6 6 4 4 4 5 5 5 5 6 11 12 12 12 9 6 6 4 4 4 4 6 6 7 8 7 11 15 15 13 13 12 13 11 7 7 7 6 8 9 7 8 8 8 8 8 8 8 9 9 9 9 10 10 10 10 10 10 10 11 11 10
10 10 10 10 9 8 8 8 7 6 6 7 7 7 7 8 8 8 8 7 7 7 6 6 6 4 4 4 5 5 5 7 5 7 10 10 10 10 7 4 2 3 5 4 6 6 6 6 6 11 14 14 12 12 13 13 12 8 10 10 14 16 11 8 8 6 6 8 8 8 9 10 10 10 10 10 10 10 10 10 10 10 10 9 10
11 11 10 10 9 8 8 8 7 5 6 6 7 7 7 7 6 6 6 6 6 6 6 6 6 5 4 3 4 5 5 6 11 8 11 11 9 9 10 7 7 3 4 5 5 6 5 6 7 12 13 13 13 13 12 14 10 9 14 13 12 14 11 7 8 7 6 7 8 9 9 9 11 11 11 11 11 10 9 9 10 10 9 10 11
11 10 9 9 8 7 7 6 5 5 5 6 7 8 8 7 7 7 6 6 7 6 7 7 6 5 4 3 3 4 4 5 9 11 10 13 12 9 10 12 11 4 3 4 5 5 6 5 6 10 14 13 13 14 13 12 11 14 14 14 13 11 8 9 8 8 6 6 8 9 9 8 8 10 10 9 9 10 9 9 10 11 11 10 12
10 10 9 8 7 6 6 6 6 6 6 7 7 7 6 6 7 5 5 5 6 7 6 8 8 8 7 7 6 6 6 6 5 8 11 11 12 11 11 12 12 10 7 6 6 5 8 10 10 12 13 12 11 11 10 11 14 14 15 15 11 7 8 8 8 8 9 7 7 7 8 8 7 7 8 8 7 7 8 9 10 11 11 10 10
10 9 8 7 6 6 6 5 5 5 5 5 5 4 5 5 5 3 3 4 6 7 7 8 8 8 7 7 6 6 5 5 5 5 6 7 7 10 10 9 10 10 8 8 11 13 13 11 8 10 11 10 7 6 6 7 11 13 14 13 8 8 7 8 8 9 9 8 7 7 7 7 8 7 7 8 9 10 9 9 9 10 10 10 10
10 9 8 7 6 6 6 5 6 7 7 7 7 6 6 6 7 6 6 7 7 7 6 6 7 7 7 6 6 5 4 4 4 4 5 5 4 5 6 7 10 10 9 8 9 8 9 7 3 7 9 12 11 8 8 8 8 8 7 7 7 8 8 6 7 7 8 7 8 8 7 7 6 6 7 9 9 9 9 9 8 9 9 9 10
10 9 8 7 6 7 8 10 10 7 7 7 7 7 7 7 8 7 6 7 8 7 7 7 6 7 7 6 5 5 3 3 3 3 5 5 5 4 4 3 5 4 6 7 7 6 4 5 6 5 7 7 8 7 7 7 7 6 7 7 7 8 10 11 9 7 7 6 7 8 8 8 7 6 7 8 8 8 8 9 9 9 9 8 10
8 8 8 8 9 8 8 8 8 9 8 9 8 6 6 7 9 6 3 1 6 8 8 7 6 5 6 7 6 4 1 1 1 4 2 4 2 5 6 6 5 5 3 6 6 5 5 7 7 7 6 7 7 6 6 7 7 7 6 7 7 7 7 7 7 7 7 7 8 8 9 8 8 7 6 7 8 8 8 8 8 8 8 9 11
8 8 8 9 8 9 8 8 8 8 9 9 9 9 11 11 6 8 6 8 12 9 8 5 6 7 7 3 3 5 4 2 4 4 6 5 4 4 5 5 2 3 7 8 2 3 4 6 6 5 5 7 7 6 7 6 6 7 7 6 7 7 8 7 8 7 7 7 6 7 8 8 9 8 7 6 7 7 8 7 8 7 8 9 9
8 8 8 8 9 9 8 8 8 8 8 9 8 9 7 8 11 10 8 9 12 13 12 11 10 8 8 4 1 2 4 4 5 6 5 6 7 8 10 11 9 6 7 7 6 4 4 7 5 5 5 5 5 7 5 5 5 6 6 6 6 7 7 7 8 7 7 7 7 6 6 7 8 8 7 6 6 6 7 7 6 7 8 8 9
8 8 8 9 10 9 8 8 8 8 7 7 8 8 8 8 6 8 9 10 10 10 10 10 10 9 9 8 5 0 4 6 6 5 6 6 7 8 10 11 12 7 4 0 3 6 4 4 4 5 6 6 5 5 5 5 6 5 5 6 6 7 7 7 7 7 7 7 8 7 7 7 7 7 7 7 6 6 6 7 7 7 7 7 8
9 7 9 10 9 10 9 8 8 8 8 8 7 7 8 8 8 6 6 8 8 7 7 7 7 8 7 7 7 6 6 5 5 6 6 5 7 8 10 11 10 7 5 5 3 3 5 4 4 4 5 5 4 5 5 6 5 6 4 4 5 7 7 6 5 8 7 7 7 7 7 7 7 7 7 6 6 6 6 6 6 6 7 7 7
7 8 9 10 10 8 8 8 8 8 7 7 7 7 7 8 8 7 7 5 3 4 4 2 1 1 3 2 3 2 4 5 7 6 5 6 6 8 8 7 7 6 4 2 1 1 4 5 5 3 4 4 4 4 5 5 5 5 5 5 5 5 5 6 7 7 6 7 7 7 7 7 6 6 6 6 6 5 6 6 6 7 7 6 6
8 10 14 11 9 9 8 8 8 8 7 7 7 7 7 7 7 7 7 7 6 5 4 1 3 3 3 3 4 5 6 7 7 7 4 5 6 9 6 7 6 5 5 3 3 2 3 4 4 4 3 5 4 3 3 4 4 5 5 6 6 5 6 7 7 6 6 6 7 7 6 6 7 6 4 6 6 6 6 6 6 6 6 6 6
9 9 9 11 9 8 8 8 8 8 8 7 7 7 7 7 7 6 6 6 6 6 3 4 4 6 7 7 7 6 7 7 7 8 6 3 4 6 4 4 5 3 2 2 4 3 1 3 4 4 4 5 4 4 2 3 3 4 3 4 5 4 4 5 6 7 5 5 6 6 7 7 6 6 7 7 6 4 4 3 4 4 4 4 4
9 9 9 9 9 8 8 9 8 8 8 8 7 7 7 6 6 6 6 6 6 6 6 5 3 1 2 4 6 7 8 7 8 8 10 9 3 1 2 3 3 2 3 1 3 4 4 2 3 4 4 4 4 3 3 5 3 4 4 4 4 6 5 4 4 5 6 6 7 6 6 7 6 5 5 6 7 7 7 5 3 3 3 3 4
9 9 9 9 8 9 9 8 9 10 10 9 8 8 8 7 7 6 7 6 7 7 6 5 5 7 6 7 6 6 4 5 5 8 8 8 5 0 3 3 5 1 1 0 2 3 3 2 2 4 3 4 3 4 3 3 6 4 3 3 4 4 4 4 5 5 6 6 7 7 6 7 7 6 4 5 5 5 7 6 6 3 3 4 2
7 10 12 12 9 8 7 8 8 9 8 9 8 8 9 8 7 6 7 7 7 7 7 6 6 7 7 6 5 2 2 1 2 5 6 6 5 5 4 3 4 1 0 1 2 4 3 3 1 1 3 3 2 2 3 2 3 4 2 2 4 4 4 4 5 5 5 6 7 7 7 7 6 4 4 5 4 4 5 7 6 5 4 4 4
7 7 9 12 9 9 9 9 10 10 9 8 8 9 8 8 8 9 9 9 9 8 7 7 7 7 7 3 3 4 5 7 6 5 4 5 6 6 3 2 2 3 1 1 2 3 3 2 3 2 1 1 1 1 1 1 1 2 2 1 1 3 2 1 3 4 4 4 5 7 7 7 7 4 5 5 4 3 5 5 5 5 4 4 4
7 7 8 10 10 8 8 8 8 7 7 6 7 7 8 8 7 6 5 5 4 4 3 5 8 9 7 8 10 10 7 7 7 6 5 5 5 5 3 3 3 3 3 4 4 4 4 3 2 2 0 1 1 1 2 0 1 1 1 1 1 1 1 1 1 2 3 4 4 5 6 7 6 4 6 5 5 5 4 4 5 5 6 5 5
8 8 9 8 9 8 8 8 6 5 7 8 8 7 5 5 7 5 6 5 5 2 1 1 3 7 8 13 12 12 7 4 3 2 4 2 2 4 4 5 5 5 6 6 5 4 4 4 3 3 1 0 1 1 2 3 2 2 1 1 1 1 0 1 1 1 1 2 3 4 4 4 6 6 4 5 5 5 4 5 4 4 5 6 5
8 9 8 8 8 8 7 7 5 7 7 8 6 6 5 5 6 6 7 5 4 4 2 1 2 4 5 7 7 6 3 3 4 4 3 4 4 4 4 6 6 5 6 5 6 6 6 6 4 4 3 2 2 2 2 3 2 3 3 3 3 3 2 2 2 1 0 0 2 2 2 3 4 6 6 5 4 5 4 5 6 5 4 4 4
9 9 8 8 8 7 6 5 7 8 7 8 8 6 5 4 5 6 6 5 4 4 3 3 4 6 5 4 4 2 4 4 4 5 5 5 6 6 6 5 3 3 5 5 5 5 6 5 4 5 4 3 3 3 3 2 1 1 3 4 4 5 5 4 4 3 2 1 1 1 1 1 2 3 5 5 4 5 5 4 5 6 6 5 4
8 8 8 7 7 7 6 4 7 8 7 5 5 7 6 4 4 5 5 5 5 5 4 5 4 6 7 6 6 7 6 6 7 6 5 6 7 8 7 5 5 4 4 4 4 5 5 5 5 5 4 5 4 4 4 3 3 3 3 3 3 4 6 6 7 6 5 4 3 2 2 0 1 1 2 3 2 2 3 3 3 5 4 4 5
8 7 7 7 7 6 5 5 6 7 7 5 5 5 4 3 1 1 3 5 5 6 6 6 5 6 6 7 7 7 7 6 7 7 7 8 7 6 5 5 5 5 5 6 5 5 6 7 6 6 6 6 7 7 7 6 5 5 5 4 4 6 5 6 6 5 5 4 4 4 4 2 2 2 3 2 3 3 3 3 2 1 1 2 4
7 7 7 6 7 7 6 7 6 6 6 6 5 6 4 4 4 3 4 4 4 6 6 5 4 5 7 8 8 8 7 7 8 7 7 8 6 7 5 4 5 5 5 6 5 7 6 6 6 6 7 7 7 7 8 7 7 6 7 6 6 7 5 4 4 6 6 6 5 4 4 4 4 4 4 3 3 4 3 4 3 4 4 4 4
8 8 7 7 7 6 5 8 7 7 7 6 5 5 5 5 5 6 6 6 5 5 5 4 5 4 5 6 5 6 7 8 8 8 8 7 8 7 7 6 5 6 6 6 6 6 6 5 6 6 7 7 7 7 7 7 7 7 7 8 7 8 8 7 4 6 7 6 6 6 6 5 5 5 6 4 5 4 4 5 4 4 5 5 5
8 8 7 7 8 7 7 8 7 7 8 7 7 7 6 7 8 7 7 7 7 7 8 6 5 6 6 6 7 7 7 6 6 7 7 7 6 7 7 7 6 6 6 6 6 6 5 6 7 8 7 7 7 7 7 7 8 8 8 8 9 13 13 12 7 7 9 7 7 6 5 6 5 6 6 5 6 5 6 5 5 6 5 5 4
7 7 6 5 7 8 6 7 7 8 8 8 7 7 7 7 6 7 7 6 6 6 6 7 8 8 8 8 6 7 6 5 6 6 6 6 6 6 5 5 4 4 4 5 6 7 7 6 6 7 7 6 7 7 7 7 8 8 8 9 13 14 14 14 12 12 9 7 8 8 8 7 7 7 7 7 6 6 7 7 7 6 6 6 5
7 8 7 7 6 7 7 7 8 7 7 6 8 8 8 7 7 7 5 5 5 5 5 6 5 5 5 6 4 4 5 4 5 4 4 4 4 4 3 3 3 2 3 4 5 5 5 6 6 7 8 8 7 7 7 8 7 8 11 14 15 15 15 13 10 11 14 11 7 8 8 8 8 8 8 8 7 7 9 9 8 7 7 7 8
Wind_Direction
104 100 90 80 86 85 87 88 89 86 82 81 82 82 83 82 77 72 61 62 67 56 48 48 48 50 59 57 52 45 38 31 24 20 16 15 22 28 31 31 38 37 13 12 14 14 24 33 33 36 27 24 14 11 4 357 353 345 347 346 339 340 336 335 337 326 323 331 329 331 327 326 326 324 322 325 324 314 311 291 280 261 254 255 258
96 82 75 77 77 81 83 84 87 87 84 80 80 82 84 80 82 74 73 73 94 122 148 9 52 66 64 58 52 46 39 31 21 16 17 16 23 44 32 29 29 19 9 19 20 19 35 36 40 37 28 25 16 12 1 352 347 346 349 343 337 331 329 327 330 330 330 331 336 333 331 342 327 336 4 11 358 348 345 342 328 302 279 272 263
93 90 85 81 77 73 74 74 77 79 79 76 79 86 94 100 99 103 103 124 74 129 57 73 76 69 66 60 55 46 38 25 14 11 11 19 22 50 39 23 17 15 24 28 23 22 35 38 45 34 23 22 19 9 1 353 346 344 339 337 331 326 321 330 337 345 340 330 332 335 336 335 336 342 16 4 358 352 353 352 348 342 338 327 317
96 95 90 83 79 75 73 72 73 75 74 77 83 79 79 87 100 97 119 181 129 62 84 79 74 70 68 64 59 55 39 19 9 6 11 12 10 31 31 25 23 28 32 31 20 17 32 39 39 29 22 19 10 5 0 351 346 340 334 330 326 325 323 333 358 344 334 328 334 338 338 333 342 333 18 357 355 349 351 337 341 338 335 335 332
96 90 86 81 75 79 77 73 74 76 74 77 80 84 89 87 94 128 150 145 72 85 86 78 75 72 70 69 65 55 44 27 20 13 6 4 2 356 29 41 43 42 38 33 27 21 25 34 32 28 21 13 5 1 355 351 344 339 333 328 330 328 317 331 345 346 344 339 329 330 335 332 331 333 9 360 343 340 341 342 337 330 328 325 324
99 94 89 86 82 81 76 77 81 86 90 84 89 100 109 128 145 155 156 124 90 87 84 81 81 79 78 73 67 61 52 39 29 16 5 4 0 356 47 52 52 48 39 32 26 24 24 28 24 28 22 14 0 353 351 347 340 338 331 328 328 325 319 335 345 346 349 334 326 329 339 338 336 340 352 348 338 332 333 331 326 333 334 330 327
105 101 98 97 95 87 86 96 100 104 108 115 115 105 118 137 124 114 100 97 92 85 81 83 81 83 78 73 62 56 49 41 31 21 13 8 7 8 59 54 56 54 45 33 25 22 22 22 25 24 18 10 0 357 348 344 343 334 332 327 325 328 321 349 343 346 343 335 325 320 321 328 336 333 340 340 332 331 329 333 328 330 335 329 320
110 107 106 105 101 102 102 102 102 98 92 94 99 101 96 77 69 68 85 95 93 91 88 87 89 88 86 77 65 52 44 38 29 21 17 11 13 38 63 58 56 56 46 35 31 28 23 23 25 21 15 10 5 357 356 345 335 338 340 334 333 333 342 358 355 350 343 337 330 331 328 329 331 330 326 331 333 330 351 332 321 323 325 321 304
108 111 113 113 110 105 96 92 104 113 124 123 109 107 89 81 75 72 78 88 91 91 89 89 91 91 84 77 69 54 47 35 23 13 10 17 20 57 70 68 64 57 46 36 34 31 29 25 23 23 19 15 8 3 356 356 359 338 340 348 347 346 356 6 3 354 348 341 332 326 329 339 343 338 339 344 347 335 329 330 311 310 310 310 308
109 107 107 110 111 110 107 108 119 134 142 142 123 96 93 80 71 70 77 88 95 95 95 90 85 83 78 64 58 55 50 46 18 15 22 16 50 72 73 72 71 65 49 42 36 32 25 22 15 20 16 16 12 5 0 356 356 358 354 10 351 353 2 4 5 356 349 346 342 337 342 344 341 343 335 333 328 327 327 326 320 316 313 303 294
109 113 114 113 118 126 131 141 147 142 138 118 106 100 87 83 78 75 78 84 95 102 100 96 88 79 72 63 53 49 39 19 12 33 38 47 72 81 83 80 75 68 60 51 46 31 19 12 4 8 9 11 10 4 360 353 351 351 5 9 16 13 3 5 1 350 354 343 340 341 339 334 339 336 333 329 332 333 325 324 315 315 319 325 320
125 123 126 135 149 151 154 156 151 145 134 121 108 99 97 93 92 89 85 81 84 95 94 92 89 83 74 66 56 46 37 11 16 28 42 51 78 98 99 94 86 78 68 62 52 37 16 7 1 357 -0 6 10 0 358 353 350 347 4 3 7 21 22 21 358 357 356 349 349 349 342 339 333 337 334 335 331 324 322 318 315 312 312 308 303
131 135 143 155 162 163 162 154 151 147 134 123 115 112 110 111 106 103 102 101 86 84 90 90 89 84 73 66 56 41 36 9 14 32 43 57 80 105 96 96 93 88 77 68 57 41 20 4 360 358 351 3 8 359 358 352 349 353 10 13 12 10 2 0 5 1 354 357 356 350 352 337 336 339 337 333 327 320 324 321 315 306 298 298 295
143 148 152 158 166 160 146 139 133 129 126 122 126 129 131 131 130 124 115 95 92 93 86 83 81 77 73 69 61 47 36 2 26 38 49 66 94 109 106 96 101 96 87 80 67 47 27 15 8 360 350 356 8 -0 354 349 348 355 6 14 17 12 11 6 357 352 354 356 353 349 343 344 334 331 333 334 332 325 319 312 311 301 300 292 295
149 147 148 155 150 137 130 129 132 134 135 139 139 134 126 115 101 88 83 90 98 98 95 89 80 73 67 64 63 53 27 17 36 42 48 70 105 100 96 96 101 97 93 88 73 53 28 19 11 -0 351 350 14 359 358 342 341 346 352 358 4 11 15 11 5 357 353 349 349 346 339 339 334 333 331 331 323 314 307 300 299 294 292 291 282
140 141 146 152 141 137 139 143 144 142 132 121 109 107 109 109 105 99 93 90 88 89 86 85 81 75 67 65 66 53 32 26 40 47 47 36 33 58 77 87 100 99 84 66 31 12 17 19 12 1 356 347 15 360 359 339 340 343 348 338 342 351 7 3 353 357 356 347 339 339 338 331 324 328 329 332 325 316 308 301 300 317 316 313 311
141 145 150 142 129 129 132 131 131 125 120 110 111 112 108 102 98 99 94 91 88 83 87 85 87 83 72 67 69 62 46 30 47 52 50 50 52 45 41 50 71 81 80 62 17 345 346 359 14 10 356 349 358 13 353 358 351 346 340 339 332 331 340 347 355 358 3 356 353 350 345 342 341 338 338 339 340 334 328 328 345 336 328 325 318
141 138 131 127 126 123 123 123 125 128 114 117 121 117 109 103 103 100 102 100 95 95 93 89 81 83 80 71 69 69 53 37 51 54 54 53 58 51 41 46 44 61 51 28 4 353 339 347 352 16 3 351 345 18 1 2 7 351 342 345 341 333 322 331 349 357 3 1 0 5 1 356 351 348 348 349 348 353 350 352 343 333 328 328 324
138 134 128 127 127 127 129 129 127 120 121 126 122 119 120 123 122 112 111 108 109 108 102 100 98 85 83 79 68 69 57 41 43 53 54 53 55 50 49 47 43 37 45 11 343 344 338 342 348 355 4 355 353 356 17 8 15 5 354 356 351 345 331 319 334 352 359 2 3 2 5 4 2 357 355 351 353 357 354 350 346 344 340 335 329
127 119 117 120 122 123 125 120 113 117 124 120 117 122 128 125 126 127 125 124 123 119 110 106 101 97 92 83 78 71 65 51 42 46 50 51 55 60 49 52 33 6 0 9 3 348 349 340 343 349 358 357 359 355 6 22 24 20 16 12 357 353 333 326 319 351 358 2 359 3 2 2 1 2 359 359 359 360 358 356 355 350 345 337 333
112 108 103 97 96 99 104 108 113 116 118 122 120 109 111 119 122 122 126 128 128 128 125 119 110 110 99 94 90 75 75 60 36 40 39 38 38 47 47 47 21 22 8 360 4 355 345 342 333 342 356 357 1 2 12 18 20 29 28 21 3 342 346 352 341 351 360 358 357 358 2 5 9 10 6 2 -0 -0 1 360 357 356 354 350 343
100 98 97 100 101 102 107 108 109 113 112 112 111 112 115 116 119 123 128 132 134 132 129 124 122 117 103 88 87 81 67 64 41 28 31 23 23 35 32 22 11 19 29 8 356 354 341 339 333 338 354 357 8 14 20 28 25 26 17 16 10 11 6 359 352 353 1 5 2 4 5 9 11 10 9 5 2 358 1 1 1 1 1 354 352
103 104 104 104 106 110 110 109 109 112 116 116 112 112 114 112 115 120 125 127 127 131 136 138 127 120 100 73 65 72 63 52 42 34 20 18 9 5 16 14 360 57 61 21 351 337 333 345 337 341 358 8 15 21 23 24 29 17 19 16 8 7 8 4 3 2 3 4 4 11 10 10 10 8 5 5 360 358 1 4 4 2 2 4 4
106 106 110 112 113 114 113 110 112 113 116 113 113 118 119 126 130 133 135 130 127 126 127 121 115 110 99 61 37 42 47 52 36 33 30 29 30 27 25 32 36 22 44 21 349 343 350 342 332 345 18 15 12 21 22 22 25 21 15 12 8 7 8 8 10 8 2 2 9 7 9 6 9 9 7 359 355 354 356 3 9 8 9 8 11
112 115 120 123 122 122 118 125 128 126 124 122 128 133 136 136 135 146 129 127 132 134 127 116 112 110 98 94 78 55 41 39 29 19 23 22 19 16 22 27 24 24 14 353 357 345 343 356 353 18 20 16 10 18 22 16 19 23 20 14 8 6 10 12 11 8 10 2 1 360 359 1 2 1 359 359 353 357 8 14 13 16 16 12 15
124 129 132 133 138 136 133 137 134 134 128 106 93 90 91 83 78 53 86 125 130 121 120 113 109 104 103 96 85 70 47 31 17 11 12 15 6 359 2 15 13 10 14 1 351 350 352 352 355 27 18 18 12 16 19 14 18 18 20 20 13 5 2 13 13 13 12 1 352 352 345 344 355 349 354 3 13 15 10 10 12 19 20 16 19
137 141 143 142 138 133 117 98 69 57 69 82 82 80 88 90 82 71 62 61 69 72 74 89 100 105 109 104 95 82 56 30 13 0 5 358 348 345 359 3 5 8 8 353 350 344 337 339 354 33 23 21 20 18 25 13 18 14 15 17 17 11 0 3 13 17 9 3 360 344 331 336 340 359 6 12 15 12 8 8 15 18 17 18 28
145 147 141 138 114 101 99 95 91 81 69 75 77 73 66 77 77 69 71 85 89 81 86 83 96 111 117 115 102 79 49 10 355 353 334 342 334 343 354 10 8 356 348 345 331 319 323 337 18 29 21 23 18 13 15 22 16 14 13 12 16 12 9 359 359 13 9 3 3 359 353 347 359 3 5 14 15 12 5 17 15 16 15 14 33
141 137 134 114 109 107 100 101 102 98 90 76 63 59 76 91 98 79 27 25 112 114 102 97 101 109 112 120 109 96 75 344 272 218 254 269 288 334 348 343 336 336 317 315 320 343 14 26 20 21 28 26 22 14 8 22 12 9 17 11 11 14 8 11 5 355 356 6 8 8 3 357 -0 9 14 21 18 13 6 20 19 22 14 27 41
135 134 125 117 116 111 108 105 107 104 101 98 89 67 42 48 58 103 92 67 81 92 107 121 140 125 99 92 143 148 174 208 245 266 258 254 267 275 270 278 274 314 329 337 118 32 15 38 24 30 26 32 27 19 7 19 24 11 8 11 10 11 8 4 3 355 351 1 4 10 7 5 3 8 21 22 12 15 9 19 19 15 29 31 37
131 131 125 122 124 121 118 111 111 108 106 104 100 99 86 47 41 56 86 92 88 87 92 105 110 111 119 112 39 132 181 218 256 269 310 323 324 330 338 334 341 17 359 4 22 33 20 42 21 22 23 32 29 26 15 24 23 23 6 9 10 6 4 8 356 355 2 357 357 2 6 16 12 8 19 19 21 10 9 9 17 19 31 30 36
137 136 121 125 126 122 119 118 115 108 107 108 111 116 108 93 54 34 49 70 76 88 97 101 106 114 128 139 144 310 278 261 254 292 302 312 330 342 336 329 321 353 342 120 41 5 36 51 36 31 31 30 3 22 28 28 25 25 10 20 9 358 5 3 346 5 3 6 358 359 357 7 12 17 19 16 25 25 16 17 20 23 21 26 29
136 128 127 130 127 123 122 122 121 120 121 119 118 120 116 115 109 87 33 41 64 72 70 86 107 123 139 166 179 181 198 225 260 283 294 325 353 344 326 318 323 330 76 70 67 17 34 44 39 28 44 34 6 27 27 29 30 23 17 14 15 356 357 347 354 14 6 4 6 5 353 357 5 17 24 22 26 28 19 21 12 26 27 26 21
132 133 135 133 129 128 130 130 128 127 127 129 132 125 122 120 124 123 110 89 51 28 22 25 150 143 148 155 196 237 246 257 268 277 308 3 355 340 338 316 350 42 89 80 100 50 66 46 35 21 31 41 24 28 35 26 26 27 14 358 355 360 358 356 16 2 3 5 8 1 2 1 7 15 15 20 21 26 26 22 20 31 29 30 30
130 129 129 131 131 135 135 135 135 134 134 135 133 129 126 128 130 133 139 143 149 158 174 226 273 220 216 264 277 274 275 278 283 292 352 6 6 333 360 24 8 338 14 43 77 86 89 82 58 31 32 38 15 56 47 36 37 27 23 10 1 358 1 15 6 357 1 5 9 2 353 5 5 8 20 26 19 25 17 19 27 31 40 33 37
130 131 135 133 135 138 141 142 143 143 144 143 141 137 138 140 144 151 152 149 154 169 204 222 223 245 244 261 279 287 280 281 297 312 319 352 350 20 12 339 352 354 32 335 35 24 106 103 88 58 48 27 22 21 34 46 20 31 27 41 21 8 358 9 15 -0 350 1 8 360 1 357 4 14 8 23 25 14 13 22 16 27 43 45 55
134 139 141 144 145 147 149 150 151 151 147 144 141 144 152 159 161 161 165 168 176 186 187 198 208 262 281 279 261 267 265 273 289 302 304 300 276 211 220 214 229 272 44 318 14 35 32 0 100 79 62 53 36 23 23 28 4 7 16 38 39 29 353 345 15 15 2 349 352 6 4 354 348 11 44 27 9 15 8 353 11 7 18 39 54
139 146 151 154 151 152 155 156 157 150 149 152 152 154 162 171 179 180 182 182 184 183 187 202 192 194 203 239 219 211 253 280 293 307 311 320 333 234 212 200 217 149 68 332 87 71 46 354 68 89 73 74 50 34 26 6 21 22 4 5 33 30 23 6 4 15 4 354 345 354 357 350 351 349 23 45 23 14 11 15 355 357 358 353 36
139 146 146 143 139 140 142 148 149 150 156 159 157 157 168 181 182 185 194 189 184 194 201 185 191 202 222 229 244 202 156 268 253 255 270 280 270 272 249 207 173 162 165 180 121 92 90 62 60 68 72 80 74 42 47 349 8 22 15 26 21 23 29 3 8 8 8 356 343 350 353 343 338 354 357 32 9 13 20 10 17 11 359 348 327
136 134 129 125 126 133 135 138 139 143 155 156 159 165 167 160 170 175 172 176 179 179 185 191 201 216 223 198 203 158 181 227 238 237 241 255 270 260 193 170 172 171 157 176 154 132 113 101 99 107 40 51 89 350 18 63 354 17 44 56 33 8 355 34 21 19 1 346 353 350 352 344 327 342 3 11 351 2 26 22 6 9 6 9 11
135 132 130 130 133 129 130 129 137 140 140 144 147 143 150 155 158 161 160 160 201 211 205 176 191 211 205 210 203 177 188 205 222 219 211 212 237 251 230 205 178 200 199 166 183 163 154 151 129 135 213 356 353 287 300 329 271 18 13 341 8 358 325 340 37 20 1 6 2 352 346 352 338 359 7 342 356 1 9 21 18 7 2 0 7
131 129 129 133 130 126 131 142 142 128 136 139 137 148 149 160 169 150 160 176 193 174 221 296 193 183 194 194 191 189 193 219 221 248 287 274 245 247 229 221 211 186 185 179 173 172 169 167 171 157 157 215 30 324 305 317 293 278 278 274 301 294 332 273 261 118 43 350 354 349 351 346 349 346 339 2 15 359 358 13 6 9 5 2 353
128 128 133 132 132 138 149 157 132 133 143 142 150 174 173 163 175 150 166 165 173 176 210 243 188 183 203 199 207 197 198 222 256 242 240 255 265 277 244 222 227 208 197 189 196 170 165 165 178 187 179 199 208 226 237 256 270 265 269 277 267 263 254 242 249 231 188 13 324 328 341 7 1 355 344 355 4 17 3 359 354 349 350 356 357
125 130 133 138 142 148 156 143 143 149 151 167 169 177 182 171 153 142 163 162 170 185 185 210 172 187 210 230 251 239 235 251 255 248 244 254 265 252 236 234 235 203 190 197 199 169 158 163 183 205 217 217 224 220 216 223 202 247 269 288 286 283 277 256 228 217 201 201 225 269 298 336 9 4 350 342 15 20 358 3 358 342 332 335 352
129 134 137 144 149 155 155 167 151 151 158 136 151 181 181 156 151 175 170 185 203 216 221 228 177 177 198 213 209 219 231 232 239 245 248 239 235 234 231 229 226 220 210 222 210 168 164 176 178 194 223 246 246 224 220 229 220 219 235 238 263 280 281 262 235 216 193 188 206 213 225 219 335 326 323 300 338 8 352 336 332 345 345 342 347
135 142 142 147 155 163 154 170 151 146 159 147 143 151 153 141 156 159 170 194 202 215 224 236 220 195 197 204 215 225 232 231 239 241 245 245 231 232 227 220 214 210 204 201 200 191 186 180 184 190 208 225 230 232 234 230 229 229 223 219 230 235 240 248 244 215 207 199 199 197 202 202 244 245 248 250 278 292 289 297 317 306 259 300 318
144 153 156 154 165 171 162 164 141 155 161 151 144 151 170 199 218 241 253 238 221 209 210 210 195 190 188 198 212 226 227 223 232 236 231 224 219 223 235 234 222 203 199 196 192 188 185 190 192 196 210 220 225 232 236 234 231 230 228 227 229 241 242 232 210 209 211 208 192 182 194 210 236 244 262 272 288 283 277 279 274 273 281 289 294
155 165 164 166 170 173 159 159 158 157 159 175 175 176 188 200 206 220 230 238 240 236 230 215 212 237 247 252 237 220 219 224 230 229 229 229 230 229 227 227 224 219 213 211 206 196 192 194 201 208 217 224 228 235 240 238 234 233 236 236 233 234 236 229 209 212 209 198 186 199 201 211 228 237 242 246 250 248 259 270 268 266 264 271 275
166 170 172 162 172 180 159 163 162 166 175 181 184 197 199 202 212 217 220 225 230 234 229 232 242 245 243 242 247 255 256 245 230 233 233 235 230 230 227 225 223 224 217 221 217 217 224 225 219 220 221 222 223 229 233 236 237 237 237 238 237 237 239 239 225 224 211 198 202 205 208 214 224 236 235 231 236 236 245 256 250 253 260 259 263
168 172 183 163 163 182 175 169 172 175 174 170 188 197 202 206 211 211 206 201 205 209 216 214 223 225 226 237 243 234 216 211 221 229 235 241 241 240 239 242 238 223 215 221 226 227 227 227 228 226 226 226 227 230 232 232 235 236 236 238 239 239 241 240 235 228 217 209 209 208 210 222 225 232 232 231 232 242 248 250 247 246 243 249 253
169 173 189 187 174 179 176 162 178 186 187 183 177 185 200 209 212 214 217 221 231 235 231 228 228 226 227 230 237 262 266 255 245 241 244 263 279 296 299 284 270 245 244 236 245 245 244 244 250 249 242 239 239 237 235 236 237 238 239 239 242 241 239 235 234 235 225 218 214 213 216 221 229 235 241 240 235 234 238 241 242 242 246 246 249